contact:dominique.lefevre@mio.osupytheas.fr, maurice.libes@osupytheas.fr, didier.mallarino@osupytheas.fr
Project:EMSO http://www.emso-fr.org/EMSO-France
Depth: 2436.0 m
Title:EMSO Ligure Ouest : Data MII capteur AQUADOPP
Date,Latitude,Longitude,X_East,Y_North,Z_Up,Amplitude_X,Amplitude_Y,Amplitude_Z,Batterie,SoundSpeed,Heading,Pitch,Roll,Pressure,TIS,Speed,Direction
, degrees North, degrees East, m.s-1, m.s-1,m.s-1, 1, 1, 1, Volt, m.s-1, degree, degree, degree, dbar, degree_C, m.s-1, degree
2021-10-16T00:04:03,42.805,6.029,0.01,-0.028,-0.027,101.0,100.0,100.0,13.4,1505.2,331.7,-0.8,1.8,2470.645,13.28,0.029,160.4
2021-10-16T00:07:03,42.805,6.029,-0.014,-0.001,-0.04,100.0,100.0,99.0,13.4,1505.2,329.0,-0.8,1.8,2470.665,13.28,0.014,265.9
2021-10-16T00:10:03,42.805,6.029,0.018,-0.008,-0.024,100.0,102.0,99.0,13.3,1505.2,325.8,-0.7,1.8,2470.593,13.28,0.019,114.0
2021-10-16T00:13:03,42.805,6.029,0.035,-0.005,-0.015,100.0,99.0,100.0,13.4,1505.2,325.7,-0.7,1.8,2470.612,13.28,0.035,98.1
2021-10-16T00:16:03,42.805,6.029,-0.007,-0.011,-0.024,100.0,101.0,100.0,13.4,1505.2,326.7,-0.8,1.8,2470.62,13.28,0.013,212.5
2021-10-16T00:19:03,42.805,6.029,0.01,-0.009,-0.007,100.0,100.0,100.0,13.3,1505.2,327.5,-0.8,1.8,2470.586,13.28,0.013,132.0
2021-10-16T00:22:03,42.805,6.029,0.033,-0.02,-0.03,100.0,101.0,99.0,13.4,1505.2,326.3,-0.7,1.8,2470.621,13.28,0.038,121.2
2021-10-16T00:25:03,42.805,6.029,0.014,-0.009,-0.024,100.0,100.0,101.0,13.4,1505.2,328.1,-0.7,1.8,2470.635,13.28,0.016,122.7
2021-10-16T00:28:03,42.805,6.029,0.002,0.0,-0.021,100.0,100.0,99.0,13.3,1505.2,327.2,-0.7,1.8,2470.601,13.28,0.002,90.0
2021-10-16T00:31:03,42.805,6.029,0.001,-0.004,-0.038,100.0,101.0,99.0,13.4,1505.2,331.2,-0.8,1.8,2470.587,13.28,0.004,166.0
2021-10-16T00:34:03,42.805,6.029,0.042,-0.012,0.006,99.0,100.0,100.0,13.4,1505.2,325.8,-0.7,1.8,2470.642,13.28,0.043,105.9
2021-10-16T00:37:03,42.805,6.029,0.013,-0.005,-0.02,100.0,101.0,99.0,13.4,1505.2,327.5,-0.7,1.8,2470.613,13.28,0.013,111.0
2021-10-16T00:40:03,42.805,6.029,0.009,-0.028,-0.016,99.0,99.0,100.0,13.4,1505.2,329.7,-0.8,1.8,2470.593,13.28,0.029,162.2
2021-10-16T00:43:03,42.805,6.029,0.032,-0.041,-0.026,100.0,99.0,101.0,13.3,1505.2,330.5,-0.7,1.8,2470.624,13.28,0.052,142.0
2021-10-16T00:46:03,42.805,6.029,0.017,-0.015,-0.04,100.0,101.0,99.0,13.3,1505.2,331.4,-0.7,1.8,2470.638,13.28,0.022,131.4
2021-10-16T00:49:03,42.805,6.029,0.039,-0.022,-0.025,101.0,102.0,98.0,13.3,1505.2,326.6,-0.7,1.8,2470.61,13.28,0.044,119.4
2021-10-16T00:52:03,42.805,6.029,-0.005,0.011,-0.019,102.0,100.0,99.0,13.4,1505.2,330.0,-0.8,1.9,2470.622,13.28,0.012,335.6
2021-10-16T00:55:03,42.805,6.029,-0.001,-0.021,-0.022,100.0,101.0,98.0,13.4,1505.2,327.9,-0.7,1.8,2470.633,13.28,0.021,182.7
2021-10-16T00:58:03,42.805,6.029,-0.001,-0.01,-0.034,100.0,100.0,99.0,13.4,1505.2,330.0,-0.8,1.8,2470.605,13.28,0.01,185.7
2021-10-16T01:04:03,42.805,6.029,-0.008,0.006,0.0,99.0,102.0,101.0,13.4,1505.2,326.7,-0.7,1.8,2470.668,13.28,0.01,306.9
2021-10-16T01:07:03,42.805,6.029,0.004,-0.007,-0.015,102.0,99.0,100.0,13.3,1505.2,327.1,-0.8,1.8,2470.652,13.28,0.008,150.3
2021-10-16T01:10:03,42.805,6.029,0.012,-0.016,-0.017,102.0,101.0,98.0,13.4,1505.2,331.1,-0.8,1.8,2470.665,13.28,0.02,143.1
2021-10-16T01:13:03,42.805,6.029,-0.004,-0.038,-0.05,101.0,99.0,100.0,13.4,1505.2,331.9,-0.8,1.8,2470.593,13.28,0.038,186.0
2021-10-16T01:16:03,42.805,6.029,0.014,-0.019,-0.036,100.0,100.0,99.0,13.4,1505.2,331.3,-0.7,1.8,2470.632,13.28,0.023,143.6
2021-10-16T01:19:03,42.805,6.029,0.024,-0.006,-0.012,100.0,101.0,100.0,13.4,1505.2,330.9,-0.8,1.8,2470.636,13.28,0.024,104.0
2021-10-16T01:22:03,42.805,6.029,0.019,-0.015,-0.053,101.0,100.0,98.0,13.4,1505.2,330.2,-0.7,1.8,2470.654,13.28,0.024,128.3
2021-10-16T01:25:03,42.805,6.029,0.015,-0.013,-0.021,99.0,102.0,101.0,13.3,1505.2,329.8,-0.8,1.8,2470.68,13.28,0.019,130.9
2021-10-16T01:28:03,42.805,6.029,0.02,-0.006,-0.01,101.0,100.0,99.0,13.4,1505.2,332.0,-0.8,1.8,2470.662,13.28,0.02,106.7
2021-10-16T01:31:03,42.805,6.029,0.033,-0.015,-0.039,101.0,99.0,100.0,13.4,1505.2,325.4,-0.7,1.8,2470.636,13.28,0.036,114.4
2021-10-16T01:34:03,42.805,6.029,0.019,-0.021,-0.04,100.0,100.0,100.0,13.4,1505.2,329.1,-0.7,1.8,2470.634,13.28,0.028,137.9
2021-10-16T01:37:03,42.805,6.029,0.018,0.014,-0.014,100.0,100.0,100.0,13.4,1505.2,326.3,-0.8,1.8,2470.644,13.28,0.022,52.1
2021-10-16T01:40:03,42.805,6.029,-0.016,-0.009,-0.029,100.0,100.0,100.0,13.4,1505.2,327.5,-0.7,1.8,2470.64,13.28,0.018,240.6
2021-10-16T01:43:03,42.805,6.029,0.015,0.002,-0.036,98.0,101.0,101.0,13.3,1505.2,325.4,-0.7,1.8,2470.634,13.28,0.015,82.4
2021-10-16T01:46:03,42.805,6.029,0.0,-0.002,-0.042,100.0,101.0,99.0,13.4,1505.2,330.0,-0.7,1.8,2470.654,13.28,0.002,180.0
2021-10-16T01:49:03,42.805,6.029,-0.023,-0.025,-0.054,101.0,100.0,99.0,13.3,1505.2,327.7,-0.8,1.8,2470.6,13.28,0.033,222.6
2021-10-16T01:52:03,42.805,6.029,-0.005,-0.017,-0.02,99.0,101.0,100.0,13.4,1505.2,331.4,-0.8,1.8,2470.663,13.28,0.017,196.4
2021-10-16T01:55:03,42.805,6.029,0.02,-0.008,0.004,101.0,100.0,100.0,13.3,1505.2,326.6,-0.7,1.8,2470.647,13.28,0.021,111.8
2021-10-16T01:58:03,42.805,6.029,0.009,-0.025,-0.045,98.0,101.0,100.0,13.4,1505.2,325.7,-0.8,1.8,2470.646,13.28,0.026,160.2
2021-10-16T02:04:03,42.805,6.029,0.007,0.0,-0.009,101.0,100.0,99.0,13.4,1505.2,326.1,-0.7,1.8,2470.668,13.28,0.007,90.0
2021-10-16T02:07:03,42.805,6.029,0.006,-0.017,-0.033,100.0,101.0,101.0,13.4,1505.2,331.0,-0.8,1.8,2470.677,13.28,0.018,160.6
2021-10-16T02:10:03,42.805,6.029,0.036,-0.001,0.013,100.0,100.0,100.0,13.4,1505.2,328.3,-0.7,1.8,2470.659,13.28,0.036,91.6
2021-10-16T02:13:03,42.805,6.029,0.044,-0.018,-0.014,100.0,101.0,99.0,13.3,1505.2,330.1,-0.7,1.8,2470.65,13.28,0.047,112.2
2021-10-16T02:16:03,42.805,6.029,0.001,0.001,0.001,101.0,100.0,100.0,13.3,1505.2,327.8,-0.8,1.8,2470.659,13.28,0.001,45.0
2021-10-16T02:19:03,42.805,6.029,0.002,-0.006,-0.024,100.0,101.0,100.0,13.4,1505.2,327.0,-0.7,1.8,2470.662,13.28,0.006,161.6
2021-10-16T02:22:03,42.805,6.029,0.033,-0.019,-0.036,100.0,100.0,99.0,13.4,1505.2,328.8,-0.7,1.8,2470.659,13.28,0.038,119.9
2021-10-16T02:25:03,42.805,6.029,0.011,-0.006,-0.031,100.0,99.0,100.0,13.4,1505.2,331.7,-0.7,1.8,2470.632,13.28,0.012,118.6
2021-10-16T02:28:03,42.805,6.029,-0.012,-0.011,-0.044,99.0,100.0,100.0,13.4,1505.2,330.1,-0.7,1.8,2470.643,13.28,0.016,227.5
2021-10-16T02:31:03,42.805,6.029,-0.014,0.011,0.005,101.0,100.0,99.0,13.4,1505.2,328.6,-0.8,1.8,2470.667,13.28,0.017,308.2
2021-10-16T02:34:03,42.805,6.029,0.015,-0.01,-0.032,101.0,101.0,99.0,13.4,1505.2,331.2,-0.8,1.8,2470.65,13.28,0.018,123.7
2021-10-16T02:37:03,42.805,6.029,0.0,-0.02,-0.08,100.0,99.0,100.0,13.4,1505.2,331.0,-0.8,1.8,2470.63,13.28,0.02,180.0
2021-10-16T02:40:03,42.805,6.029,-0.001,-0.001,-0.027,101.0,100.0,100.0,13.4,1505.2,329.8,-0.7,1.8,2470.673,13.28,0.001,225.0
2021-10-16T02:43:03,42.805,6.029,0.0,0.002,-0.036,100.0,101.0,99.0,13.4,1505.2,327.1,-0.7,1.8,2470.694,13.28,0.002,0.0
2021-10-16T02:46:03,42.805,6.029,0.026,-0.017,0.007,99.0,102.0,99.0,13.4,1505.2,328.1,-0.8,1.8,2470.695,13.28,0.031,123.2
2021-10-16T02:49:03,42.805,6.029,-0.003,-0.003,0.02,101.0,99.0,99.0,13.4,1505.2,329.4,-0.7,1.8,2470.662,13.28,0.004,225.0
2021-10-16T02:52:03,42.805,6.029,0.01,-0.008,-0.009,99.0,100.0,99.0,13.4,1505.2,326.6,-0.8,1.8,2470.677,13.28,0.012,128.7
2021-10-16T02:55:03,42.805,6.029,0.004,-0.02,-0.037,100.0,100.0,99.0,13.4,1505.2,329.3,-0.8,1.8,2470.65,13.28,0.02,168.7
2021-10-16T02:58:03,42.805,6.029,0.011,-0.019,-0.015,98.0,100.0,101.0,13.3,1505.2,329.9,-0.8,1.8,2470.686,13.28,0.021,149.9
2021-10-16T03:04:03,42.805,6.029,0.006,-0.02,-0.058,99.0,99.0,100.0,13.3,1505.2,327.7,-0.8,1.8,2470.669,13.28,0.02,163.3
2021-10-16T03:07:03,42.805,6.029,-0.008,-0.013,-0.008,100.0,101.0,99.0,13.4,1505.2,329.4,-0.7,1.8,2470.699,13.28,0.015,211.6
2021-10-16T03:10:03,42.805,6.029,-0.003,-0.003,-0.019,100.0,101.0,99.0,13.4,1505.2,326.4,-0.8,1.8,2470.684,13.28,0.004,225.0
2021-10-16T03:13:03,42.805,6.029,0.023,-0.041,-0.029,100.0,99.0,99.0,13.3,1505.2,329.5,-0.7,1.8,2470.715,13.28,0.047,150.7
2021-10-16T03:16:03,42.805,6.029,0.002,-0.006,-0.003,101.0,101.0,99.0,13.4,1505.2,330.2,-0.7,1.8,2470.674,13.28,0.006,161.6
2021-10-16T03:19:03,42.805,6.029,0.008,-0.012,0.008,100.0,101.0,100.0,13.4,1505.2,328.9,-0.8,1.8,2470.691,13.28,0.014,146.3
2021-10-16T03:22:03,42.805,6.029,0.028,-0.008,-0.004,100.0,100.0,99.0,13.4,1505.2,331.3,-0.7,1.8,2470.715,13.28,0.029,105.9
2021-10-16T03:25:03,42.805,6.029,0.027,-0.038,-0.036,100.0,101.0,99.0,13.4,1505.2,329.9,-0.8,1.8,2470.689,13.28,0.046,144.6
2021-10-16T03:28:03,42.805,6.029,0.016,-0.018,-0.039,101.0,101.0,98.0,13.4,1505.2,325.3,-0.8,1.8,2470.647,13.28,0.024,138.4
2021-10-16T03:31:03,42.805,6.029,0.0,-0.018,-0.027,98.0,101.0,99.0,13.4,1505.2,326.1,-0.7,1.8,2470.647,13.28,0.018,180.0
2021-10-16T03:34:03,42.805,6.029,-0.009,-0.03,-0.045,99.0,100.0,99.0,13.4,1505.2,330.1,-0.8,1.8,2470.658,13.28,0.031,196.7
2021-10-16T03:37:03,42.805,6.029,0.017,-0.019,-0.02,99.0,99.0,100.0,13.4,1505.2,331.9,-0.8,1.8,2470.684,13.28,0.025,138.2
2021-10-16T03:40:03,42.805,6.029,0.0,0.003,-0.024,100.0,98.0,99.0,13.4,1505.2,328.0,-0.7,1.8,2470.643,13.28,0.003,0.0
2021-10-16T03:43:03,42.805,6.029,-0.007,-0.013,-0.027,100.0,100.0,99.0,13.4,1505.2,329.5,-0.8,1.8,2470.675,13.28,0.014,208.3
2021-10-16T03:46:03,42.805,6.029,0.007,-0.002,-0.026,98.0,100.0,100.0,13.3,1505.2,327.5,-0.8,1.8,2470.682,13.28,0.007,105.9
2021-10-16T03:49:03,42.805,6.029,0.002,-0.011,0.001,100.0,100.0,99.0,13.4,1505.2,327.6,-0.8,1.8,2470.642,13.28,0.011,169.7
2021-10-16T03:52:03,42.805,6.029,0.008,-0.009,-0.022,99.0,100.0,99.0,13.4,1505.2,326.8,-0.8,1.8,2470.632,13.28,0.012,138.4
2021-10-16T03:55:03,42.805,6.029,0.004,-0.019,-0.042,101.0,100.0,100.0,13.4,1505.2,327.5,-0.7,1.8,2470.67,13.28,0.019,168.1
2021-10-16T03:58:03,42.805,6.029,-0.005,0.002,-0.005,99.0,99.0,99.0,13.4,1505.2,326.7,-0.7,1.8,2470.64,13.28,0.005,291.8
2021-10-16T04:04:03,42.805,6.029,-0.016,-0.001,-0.007,100.0,100.0,99.0,13.4,1505.2,327.8,-0.7,1.8,2470.695,13.28,0.016,266.4
2021-10-16T04:07:03,42.805,6.029,0.026,0.011,-0.011,100.0,100.0,99.0,13.4,1505.2,329.1,-0.8,1.8,2470.749,13.28,0.028,67.1
2021-10-16T04:10:03,42.805,6.029,0.008,0.002,-0.007,99.0,100.0,99.0,13.3,1505.2,329.8,-0.7,1.8,2470.698,13.28,0.008,76.0
2021-10-16T04:13:03,42.805,6.029,0.013,-0.017,-0.032,99.0,100.0,99.0,13.4,1505.2,326.3,-0.8,1.8,2470.733,13.28,0.021,142.6
2021-10-16T04:16:03,42.805,6.029,-0.013,-0.002,-0.016,99.0,100.0,100.0,13.3,1505.2,330.1,-0.8,1.8,2470.703,13.28,0.013,261.3
2021-10-16T04:19:03,42.805,6.029,-0.01,-0.016,-0.046,99.0,99.0,99.0,13.3,1505.2,331.3,-0.8,1.8,2470.662,13.28,0.018,212.0
2021-10-16T04:22:03,42.805,6.029,0.011,-0.01,-0.025,99.0,100.0,99.0,13.3,1505.2,328.2,-0.8,1.8,2470.694,13.28,0.014,132.3
2021-10-16T04:25:03,42.805,6.029,0.007,-0.011,-0.004,100.0,97.0,100.0,13.4,1505.2,329.1,-0.7,1.8,2470.646,13.28,0.013,147.5
2021-10-16T04:28:03,42.805,6.029,-0.026,-0.02,-0.054,100.0,99.0,99.0,13.3,1505.2,327.7,-0.8,1.8,2470.7,13.28,0.032,232.4
2021-10-16T04:31:03,42.805,6.029,0.013,-0.007,-0.008,101.0,99.0,100.0,13.3,1505.2,330.9,-0.7,1.8,2470.687,13.28,0.014,118.3
2021-10-16T04:34:03,42.805,6.029,0.004,-0.005,-0.014,100.0,100.0,99.0,13.4,1505.2,329.1,-0.7,1.8,2470.69,13.28,0.006,141.3
2021-10-16T04:37:03,42.805,6.029,0.014,-0.005,-0.024,99.0,99.0,101.0,13.4,1505.2,331.7,-0.7,1.8,2470.666,13.28,0.014,109.6
2021-10-16T04:40:03,42.805,6.029,0.017,-0.017,-0.031,99.0,102.0,100.0,13.4,1505.2,329.9,-0.8,1.8,2470.737,13.28,0.024,135.0
2021-10-16T04:43:03,42.805,6.029,-0.01,-0.012,-0.031,100.0,98.0,100.0,13.4,1505.2,331.1,-0.8,1.8,2470.692,13.28,0.015,219.8
2021-10-16T04:46:03,42.805,6.029,0.006,-0.019,-0.002,101.0,100.0,100.0,13.4,1505.2,328.2,-0.8,1.8,2470.672,13.28,0.019,162.5
2021-10-16T04:49:03,42.805,6.029,0.016,0.008,-0.03,101.0,100.0,99.0,13.3,1505.2,331.2,-0.7,1.8,2470.696,13.28,0.017,63.4
2021-10-16T04:52:03,42.805,6.029,-0.014,0.0,-0.025,100.0,101.0,99.0,13.4,1505.2,326.8,-0.7,1.8,2470.688,13.28,0.014,270.0
2021-10-16T04:55:03,42.805,6.029,0.022,0.001,-0.005,100.0,100.0,100.0,13.4,1505.2,330.2,-0.8,1.9,2470.685,13.28,0.022,87.4
2021-10-16T04:58:03,42.805,6.029,0.027,-0.011,-0.035,99.0,100.0,100.0,13.3,1505.2,327.5,-0.8,1.8,2470.633,13.28,0.029,112.2
2021-10-16T05:04:03,42.805,6.029,0.018,-0.001,0.002,99.0,100.0,99.0,13.4,1505.2,331.4,-0.7,1.8,2470.712,13.28,0.018,93.2
2021-10-16T05:07:03,42.805,6.029,0.019,-0.008,-0.002,100.0,100.0,99.0,13.4,1505.2,331.7,-0.8,1.8,2470.736,13.28,0.02,112.8
2021-10-16T05:10:03,42.805,6.029,-0.006,0.015,0.0,100.0,99.0,100.0,13.3,1505.2,330.7,-0.8,1.8,2470.695,13.28,0.016,338.2
2021-10-16T05:13:03,42.805,6.029,0.009,-0.012,-0.024,101.0,99.0,100.0,13.4,1505.2,326.6,-0.7,1.8,2470.732,13.28,0.015,143.1
2021-10-16T05:16:03,42.805,6.029,0.014,-0.008,-0.041,102.0,100.0,98.0,13.4,1505.2,327.1,-0.8,1.8,2470.671,13.28,0.016,119.7
2021-10-16T05:19:03,42.805,6.029,-0.012,-0.016,-0.023,100.0,100.0,99.0,13.4,1505.2,327.7,-0.7,1.8,2470.701,13.28,0.02,216.9
2021-10-16T05:22:03,42.805,6.029,0.0,-0.02,-0.043,100.0,100.0,99.0,13.4,1505.2,331.7,-0.8,1.9,2470.71,13.28,0.02,180.0
2021-10-16T05:25:03,42.805,6.029,0.0,-0.011,-0.003,101.0,99.0,99.0,13.4,1505.2,327.7,-0.8,1.8,2470.664,13.28,0.011,180.0
2021-10-16T05:28:03,42.805,6.029,0.033,0.007,0.025,100.0,100.0,100.0,13.4,1505.2,326.0,-0.7,1.9,2470.682,13.28,0.033,78.0
2021-10-16T05:31:03,42.805,6.029,0.018,-0.01,-0.018,99.0,100.0,100.0,13.4,1505.2,324.9,-0.7,1.8,2470.692,13.28,0.02,119.1
2021-10-16T05:34:03,42.805,6.029,-0.014,-0.008,-0.039,102.0,101.0,99.0,13.4,1505.2,326.7,-0.8,1.8,2470.707,13.28,0.016,240.3
2021-10-16T05:37:03,42.805,6.029,0.003,-0.014,0.001,101.0,100.0,99.0,13.4,1505.2,328.1,-0.8,1.8,2470.713,13.28,0.014,167.9
2021-10-16T05:40:03,42.805,6.029,0.016,-0.015,0.006,102.0,100.0,100.0,13.4,1505.2,327.0,-0.8,1.8,2470.721,13.28,0.021,133.1
2021-10-16T05:43:03,42.805,6.029,0.018,0.0,-0.029,100.0,100.0,100.0,13.3,1505.2,327.5,-0.7,1.8,2470.722,13.28,0.018,90.0
2021-10-16T05:46:03,42.805,6.029,0.002,-0.008,-0.037,100.0,101.0,98.0,13.4,1505.2,325.2,-0.8,1.8,2470.68,13.28,0.008,166.0
2021-10-16T05:49:03,42.805,6.029,0.046,-0.008,-0.025,100.0,100.0,100.0,13.4,1505.2,325.2,-0.8,1.8,2470.708,13.28,0.046,99.9
2021-10-16T05:52:03,42.805,6.029,0.002,-0.012,-0.015,99.0,101.0,99.0,13.4,1505.2,329.2,-0.7,1.8,2470.71,13.28,0.012,170.5
2021-10-16T05:55:03,42.805,6.029,0.024,-0.019,-0.019,100.0,101.0,99.0,13.4,1505.2,329.7,-0.8,1.8,2470.7,13.28,0.03,128.4
2021-10-16T05:58:03,42.805,6.029,0.003,-0.031,-0.042,99.0,101.0,101.0,13.4,1505.2,330.2,-0.8,1.8,2470.712,13.28,0.031,174.5
2021-10-16T06:04:03,42.805,6.029,0.018,-0.011,-0.031,101.0,100.0,100.0,13.3,1505.2,330.9,-0.8,1.8,2470.691,13.28,0.021,121.4
2021-10-16T06:07:03,42.805,6.029,-0.008,0.009,-0.029,100.0,99.0,99.0,13.3,1505.2,329.6,-0.7,1.8,2470.689,13.28,0.012,318.4
2021-10-16T06:10:03,42.805,6.029,-0.017,-0.005,-0.053,99.0,101.0,99.0,13.4,1505.2,329.5,-0.7,1.8,2470.732,13.28,0.017,253.6
2021-10-16T06:13:03,42.805,6.029,0.017,-0.018,0.002,99.0,103.0,99.0,13.4,1505.2,326.6,-0.8,1.8,2470.739,13.28,0.024,136.6
2021-10-16T06:16:03,42.805,6.029,0.009,0.0,-0.001,101.0,100.0,99.0,13.4,1505.2,327.6,-0.8,1.9,2470.714,13.28,0.009,90.0
2021-10-16T06:19:03,42.805,6.029,0.027,-0.02,-0.047,101.0,99.0,101.0,13.4,1505.2,327.4,-0.7,1.8,2470.702,13.28,0.033,126.5
2021-10-16T06:22:03,42.805,6.029,0.044,-0.021,-0.006,99.0,101.0,100.0,13.4,1505.2,330.7,-0.8,1.8,2470.7,13.28,0.048,115.5
2021-10-16T06:25:03,42.805,6.029,0.028,-0.012,-0.007,100.0,100.0,100.0,13.3,1505.2,329.5,-0.8,1.8,2470.671,13.28,0.03,113.2
2021-10-16T06:28:03,42.805,6.029,0.006,-0.012,-0.013,100.0,100.0,100.0,13.4,1505.2,328.0,-0.8,1.8,2470.651,13.28,0.013,153.4
2021-10-16T06:31:03,42.805,6.029,0.009,0.0,-0.008,100.0,101.0,99.0,13.4,1505.2,330.1,-0.7,1.8,2470.673,13.28,0.009,90.0
2021-10-16T06:34:03,42.805,6.029,0.027,-0.004,-0.035,101.0,100.0,99.0,13.3,1505.2,331.3,-0.7,1.8,2470.671,13.28,0.027,98.4
2021-10-16T06:37:03,42.805,6.029,0.019,-0.009,-0.004,100.0,100.0,100.0,13.4,1505.2,330.5,-0.7,1.8,2470.673,13.28,0.021,115.3
2021-10-16T06:40:03,42.805,6.029,0.036,0.006,0.018,102.0,100.0,100.0,13.4,1505.2,325.2,-0.8,1.8,2470.706,13.28,0.036,80.5
2021-10-16T06:43:03,42.805,6.029,0.018,0.008,0.001,100.0,101.0,100.0,13.4,1505.2,326.3,-0.8,1.9,2470.692,13.28,0.019,66.0
2021-10-16T06:46:03,42.805,6.029,0.009,-0.018,-0.016,100.0,99.0,99.0,13.4,1505.2,327.1,-0.8,1.8,2470.694,13.28,0.02,153.4
2021-10-16T06:49:03,42.805,6.029,0.005,0.005,-0.005,100.0,100.0,100.0,13.4,1505.2,327.2,-0.8,1.8,2470.657,13.28,0.007,45.0
2021-10-16T06:52:03,42.805,6.029,0.025,-0.009,-0.009,99.0,100.0,100.0,13.4,1505.2,329.4,-0.7,1.8,2470.67,13.28,0.026,109.8
2021-10-16T06:55:03,42.805,6.029,-0.011,-0.011,-0.049,101.0,100.0,99.0,13.4,1505.2,330.4,-0.7,1.8,2470.676,13.28,0.015,225.0
2021-10-16T06:58:03,42.805,6.029,0.018,-0.016,-0.013,100.0,101.0,99.0,13.3,1505.2,329.6,-0.7,1.8,2470.743,13.28,0.024,131.6
2021-10-16T07:04:03,42.805,6.029,-0.005,-0.025,-0.041,99.0,102.0,100.0,13.4,1505.2,329.6,-0.8,1.8,2470.718,13.28,0.025,191.3
2021-10-16T07:07:03,42.805,6.029,-0.001,0.013,0.007,100.0,101.0,99.0,13.4,1505.2,329.0,-0.7,1.8,2470.735,13.28,0.013,355.6
2021-10-16T07:10:03,42.805,6.029,0.03,-0.007,-0.046,99.0,100.0,100.0,13.4,1505.2,328.9,-0.8,1.8,2470.701,13.28,0.03,103.1
2021-10-16T07:13:03,42.805,6.029,0.02,-0.005,-0.014,100.0,100.0,100.0,13.4,1505.2,325.7,-0.8,1.8,2470.671,13.28,0.02,104.0
2021-10-16T07:16:03,42.805,6.029,0.0,0.006,-0.005,99.0,102.0,100.0,13.4,1505.2,327.6,-0.8,1.8,2470.711,13.28,0.006,0.0
2021-10-16T07:19:03,42.805,6.029,0.014,-0.01,-0.009,100.0,101.0,100.0,13.4,1505.2,327.8,-0.7,1.8,2470.691,13.28,0.017,125.5
2021-10-16T07:22:03,42.805,6.029,0.017,0.003,0.002,100.0,100.0,100.0,13.3,1505.2,325.5,-0.8,1.8,2470.655,13.28,0.017,80.0
2021-10-16T07:25:03,42.805,6.029,0.017,-0.034,-0.02,101.0,101.0,99.0,13.3,1505.2,327.8,-0.7,1.8,2470.69,13.28,0.038,153.4
2021-10-16T07:28:03,42.805,6.029,0.029,-0.018,-0.012,100.0,101.0,99.0,13.3,1505.2,329.9,-0.7,1.8,2470.683,13.28,0.034,121.8
2021-10-16T07:31:03,42.805,6.029,0.011,-0.016,-0.019,101.0,101.0,99.0,13.3,1505.2,331.4,-0.7,1.8,2470.666,13.28,0.019,145.5
2021-10-16T07:34:03,42.805,6.029,0.02,0.0,-0.02,101.0,103.0,100.0,13.4,1505.2,325.5,-0.7,1.9,2470.71,13.28,0.02,90.0
2021-10-16T07:37:03,42.805,6.029,0.019,-0.001,-0.009,101.0,101.0,99.0,13.4,1505.2,330.0,-0.7,1.8,2470.663,13.28,0.019,93.0
2021-10-16T07:40:03,42.805,6.029,0.014,0.013,-0.003,101.0,100.0,99.0,13.4,1505.2,331.1,-0.8,1.8,2470.698,13.28,0.019,47.1
2021-10-16T07:43:03,42.805,6.029,0.01,0.002,-0.026,100.0,100.0,100.0,13.4,1505.2,329.1,-0.7,1.8,2470.694,13.28,0.01,78.7
2021-10-16T07:46:03,42.805,6.029,0.011,-0.009,-0.003,100.0,100.0,99.0,13.4,1505.2,327.1,-0.7,1.8,2470.691,13.28,0.014,129.3
2021-10-16T07:49:03,42.805,6.029,0.035,-0.008,-0.001,100.0,100.0,100.0,13.4,1505.2,328.9,-0.8,1.8,2470.658,13.28,0.035,102.9
2021-10-16T07:52:03,42.805,6.029,0.035,-0.006,-0.027,100.0,101.0,99.0,13.4,1505.2,331.5,-0.8,1.8,2470.69,13.28,0.035,99.7
2021-10-16T07:55:03,42.805,6.029,0.031,-0.013,-0.008,100.0,101.0,100.0,13.4,1505.2,330.3,-0.7,1.8,2470.649,13.28,0.033,112.7
2021-10-16T07:58:03,42.805,6.029,0.011,-0.013,-0.03,102.0,99.0,99.0,13.4,1505.2,327.2,-0.8,1.8,2470.66,13.28,0.017,139.8
2021-10-16T08:04:03,42.805,6.029,0.011,-0.006,-0.017,100.0,101.0,100.0,13.3,1505.2,330.8,-0.8,1.8,2470.691,13.28,0.012,118.6
2021-10-16T08:07:03,42.805,6.029,0.033,-0.011,-0.016,100.0,100.0,100.0,13.4,1505.2,329.6,-0.7,1.8,2470.73,13.28,0.034,108.4
2021-10-16T08:10:03,42.805,6.029,0.008,-0.009,-0.011,100.0,101.0,100.0,13.4,1505.2,327.8,-0.8,1.8,2470.686,13.28,0.012,138.4
2021-10-16T08:13:03,42.805,6.029,0.014,-0.008,0.007,101.0,101.0,99.0,13.4,1505.2,330.8,-0.7,1.8,2470.681,13.28,0.016,119.7
2021-10-16T08:16:03,42.805,6.029,0.036,-0.006,-0.001,101.0,99.0,100.0,13.4,1505.2,330.9,-0.7,1.8,2470.684,13.28,0.036,99.5
2021-10-16T08:19:03,42.805,6.029,0.037,-0.02,-0.003,100.0,102.0,98.0,13.4,1505.2,326.6,-0.7,1.8,2470.689,13.28,0.042,118.4
2021-10-16T08:22:03,42.805,6.029,0.023,-0.007,-0.013,99.0,100.0,100.0,13.4,1505.2,327.5,-0.7,1.8,2470.657,13.28,0.024,106.9
2021-10-16T08:25:03,42.805,6.029,-0.002,0.01,-0.012,100.0,100.0,100.0,13.4,1505.2,327.3,-0.8,1.8,2470.662,13.28,0.01,348.7
2021-10-16T08:28:03,42.805,6.029,0.022,-0.005,-0.022,100.0,101.0,101.0,13.4,1505.2,329.6,-0.7,1.9,2470.698,13.28,0.022,102.8
2021-10-16T08:31:03,42.805,6.029,0.029,-0.019,-0.027,99.0,101.0,100.0,13.4,1505.2,327.0,-0.8,1.8,2470.662,13.28,0.034,123.2
2021-10-16T08:34:03,42.805,6.029,0.011,0.002,-0.003,99.0,101.0,99.0,13.4,1505.2,326.7,-0.7,1.8,2470.671,13.28,0.011,79.7
2021-10-16T08:37:03,42.805,6.029,0.015,-0.011,0.024,100.0,100.0,99.0,13.4,1505.2,328.0,-0.7,1.8,2470.651,13.28,0.018,126.3
2021-10-16T08:40:03,42.805,6.029,0.0,-0.003,0.0,100.0,100.0,100.0,13.4,1505.2,326.3,-0.8,1.8,2470.663,13.28,0.003,180.0
2021-10-16T08:43:03,42.805,6.029,0.002,0.005,-0.013,100.0,100.0,100.0,13.3,1505.2,326.6,-0.7,1.8,2470.651,13.28,0.005,21.8
2021-10-16T08:46:03,42.805,6.029,0.016,-0.008,-0.006,100.0,102.0,100.0,13.4,1505.2,327.1,-0.8,1.8,2470.652,13.28,0.017,116.6
2021-10-16T08:49:03,42.805,6.029,0.001,-0.008,-0.043,100.0,103.0,98.0,13.4,1505.2,331.6,-0.7,1.8,2470.639,13.28,0.008,172.9
2021-10-16T08:52:03,42.805,6.029,0.009,-0.005,-0.001,101.0,100.0,99.0,13.4,1505.2,327.6,-0.7,1.8,2470.631,13.28,0.01,119.1
2021-10-16T08:55:03,42.805,6.029,0.034,-0.027,-0.019,101.0,101.0,99.0,13.4,1505.2,329.0,-0.8,1.8,2470.635,13.28,0.043,128.5
2021-10-16T08:58:03,42.805,6.029,0.016,-0.004,-0.023,100.0,100.0,99.0,13.3,1505.2,325.1,-0.8,1.8,2470.686,13.28,0.016,104.0
2021-10-16T09:04:03,42.805,6.029,0.016,0.006,0.032,102.0,100.0,99.0,13.3,1505.2,327.5,-0.8,1.8,2470.654,13.28,0.017,69.4
2021-10-16T09:07:03,42.805,6.029,0.009,0.0,-0.013,100.0,101.0,100.0,13.3,1505.2,326.7,-0.8,1.8,2470.682,13.28,0.009,90.0
2021-10-16T09:10:03,42.805,6.029,0.012,-0.013,-0.03,100.0,100.0,100.0,13.4,1505.2,325.4,-0.7,1.9,2470.678,13.28,0.017,137.3
2021-10-16T09:13:03,42.805,6.029,0.034,-0.016,0.0,100.0,101.0,99.0,13.4,1505.2,327.9,-0.8,1.8,2470.651,13.28,0.037,115.2
2021-10-16T09:16:03,42.805,6.029,0.006,0.01,-0.009,100.0,100.0,100.0,13.3,1505.2,328.5,-0.8,1.8,2470.677,13.28,0.011,31.0
2021-10-16T09:19:03,42.805,6.029,0.017,-0.009,-0.015,101.0,100.0,99.0,13.3,1505.2,329.6,-0.7,1.8,2470.632,13.28,0.019,117.9
2021-10-16T09:22:03,42.805,6.029,0.033,-0.019,-0.028,100.0,103.0,99.0,13.4,1505.2,325.7,-0.8,1.8,2470.613,13.28,0.038,119.9
2021-10-16T09:25:03,42.805,6.029,0.0,-0.015,-0.007,99.0,100.0,101.0,13.3,1505.2,329.4,-0.8,1.9,2470.626,13.28,0.015,180.0
2021-10-16T09:28:03,42.805,6.029,0.024,0.012,0.018,100.0,100.0,100.0,13.4,1505.2,327.5,-0.8,1.8,2470.634,13.28,0.026,63.4
2021-10-16T09:31:03,42.805,6.029,0.045,-0.021,0.001,101.0,101.0,99.0,13.4,1505.2,327.5,-0.7,1.8,2470.579,13.28,0.049,115.0
2021-10-16T09:34:03,42.805,6.029,0.002,-0.01,-0.036,99.0,102.0,100.0,13.3,1505.2,329.1,-0.7,1.8,2470.622,13.28,0.01,168.7
2021-10-16T09:37:03,42.805,6.029,0.002,0.01,0.026,100.0,100.0,99.0,13.4,1505.2,325.8,-0.7,1.8,2470.642,13.28,0.01,11.3
2021-10-16T09:40:03,42.805,6.029,0.055,-0.002,-0.014,100.0,100.0,99.0,13.4,1505.2,330.1,-0.8,1.8,2470.614,13.28,0.055,92.1
2021-10-16T09:43:03,42.805,6.029,0.02,-0.012,-0.015,99.0,100.0,99.0,13.4,1505.2,330.6,-0.8,1.8,2470.675,13.28,0.023,121.0
2021-10-16T09:46:03,42.805,6.029,0.02,0.001,-0.019,99.0,101.0,100.0,13.4,1505.2,326.1,-0.7,1.8,2470.661,13.28,0.02,87.1
2021-10-16T09:49:03,42.805,6.029,0.016,0.003,0.005,100.0,100.0,100.0,13.4,1505.2,329.8,-0.7,1.8,2470.601,13.28,0.016,79.4
2021-10-16T09:52:03,42.805,6.029,0.011,-0.003,-0.001,98.0,100.0,100.0,13.3,1505.2,327.4,-0.7,1.9,2470.629,13.28,0.011,105.3
2021-10-16T09:55:03,42.805,6.029,0.014,0.017,-0.002,100.0,100.0,100.0,13.4,1505.2,330.0,-0.8,1.8,2470.631,13.28,0.022,39.5
2021-10-16T09:58:03,42.805,6.029,0.006,0.002,-0.027,100.0,99.0,100.0,13.4,1505.2,327.9,-0.7,1.8,2470.622,13.28,0.006,71.6
2021-10-16T10:04:03,42.805,6.029,0.014,0.014,0.011,100.0,100.0,99.0,13.4,1505.2,325.9,-0.7,1.8,2470.68,13.28,0.019,45.0